EW3554 Weather Reports


time (UTC)temp
C
wind
direction
speed
KPH
gust
KPH
rain 1hr
cm
rain 24hr
cm
rain mn
cm
humidity
%
barometer
mb
20260505065514 6 0.0 0.0 0.00 0.00 0.00 85 1016.3
20260505065016 6 0.0 0.0 0.00 0.00 0.00 84 1016.3
20260505064015 7 0.0 0.0 0.00 0.00 0.00 84 1016.4
20260505063015 7 0.0 0.0 0.00 0.00 0.00 84 1016.7
20260505062015 7 0.0 0.0 0.00 0.00 0.00 84 1016.6
20260505061015 7 0.0 0.0 0.00 0.00 0.00 83 1016.6
20260505060015 7 0.0 0.0 0.00 0.00 0.00 82 1016.6
20260505055015 7 0.0 0.0 0.00 0.00 0.00 82 1016.6
20260505054015 7 0.0 0.0 0.00 0.00 0.00 81 1016.8
20260505053015 8 0.0 0.0 0.00 0.00 0.00 80 1016.8
20260505052015 8 0.0 0.0 0.00 0.00 0.00 80 1016.7
20260505051015 8 0.0 0.0 0.00 0.00 0.00 79 1016.7
20260505041035 10 0.0 0.0 0.00 0.00 0.00 73 1016.6
20260505040015 10 0.0 0.0 0.00 0.00 0.00 72 1016.6
20260505035016 11 0.0 0.0 0.00 0.00 0.00 70 1016.6
20260505034036 11 0.0 0.0 0.00 0.00 0.00 69 1016.7
20260505033016 11 0.0 0.0 0.00 0.00 0.00 68 1016.9
20260505032016 12 0.0 0.0 0.00 0.00 0.00 66 1016.8
20260505031016 12 0.0 0.0 0.00 0.00 0.00 65 1016.8
20260505030016 12 0.0 0.0 0.00 0.00 0.00 63 1016.7
20260505025056 13 0.0 0.0 0.00 0.00 0.00 62 1016.9
20260505024016 13 0.0 0.0 0.00 0.00 0.00 58 1016.8
20260505023016 14 0.0 0.0 0.00 0.00 0.00 55 1016.7
20260505022016 15 0.0 3.2 0.00 0.00 0.00 53 1016.5
20260505021016 15 286 0.0 1.6 0.00 0.00 0.00 53 1016.4
20260505020016 16 286 0.0 3.2 0.00 0.00 0.00 50 1016.1
20260505015016 16 0.0 0.0 0.00 0.00 0.00 48 1015.8
20260505014016 16 286 0.0 4.8 0.00 0.00 0.00 46 1015.7
20260505013016 16 280 1.6 4.8 0.00 0.00 0.00 46 1015.5
20260505012016 16 0.0 0.0 0.00 0.00 0.00 45 1015.2
20260505011016 17 0.0 0.0 0.00 0.00 0.00 44 1015.1
20260505010015 17 272 0.0 4.8 0.00 0.00 0.00 43 1015.0
20260505005035 17 265 1.6 9.7 0.00 0.00 0.00 42 1014.9
20260505004015 17 282 1.6 6.4 0.00 0.00 0.00 40 1014.8
20260505003055 18 284 1.6 11.3 0.00 0.00 0.00 40 1014.7
20260505002015 18 305 1.6 9.7 0.00 0.00 0.00 39 1014.5
20260505001015 18 267 3.2 14.5 0.00 0.00 0.00 37 1014.5
20260505000015 19 276 3.2 12.9 0.00 0.00 0.00 36 1014.3
20260504235015 19 270 1.6 9.7 0.00 0.00 0.00 36 1014.3
20260504234015 19 284 1.6 6.4 0.00 0.00 0.00 35 1014.2
20260504233015 20 337 3.2 12.9 0.00 0.00 0.00 37 1014.3
20260504232015 20 308 1.6 6.4 0.00 0.00 0.00 35 1014.2
20260504231015 20 311 3.2 11.3 0.00 0.00 0.00 34 1014.2
20260504230015 21 283 1.6 12.9 0.00 0.00 0.00 34 1014.4
20260504225015 21 266 4.8 16.1 0.00 0.00 0.00 33 1014.4
20260504224035 22 274 1.6 11.3 0.00 0.00 0.00 34 1014.4
20260504223015 22 266 4.8 12.9 0.00 0.00 0.00 31 1014.6
20260504222035 22 303 3.2 4.8 0.00 0.00 0.00 32 1014.7
20260504221035 23 270 4.8 16.1 0.00 0.00 0.00 30 1014.8
20260504220015 23 258 3.2 14.5 0.00 0.00 0.00 30 1014.8
20260504215015 23 290 3.2 12.9 0.00 0.00 0.00 32 1014.8
20260504214035 23 248 1.6 6.4 0.00 0.00 0.00 31 1014.8
20260504213015 23 275 4.8 16.1 0.00 0.00 0.00 31 1014.8
20260504212035 23 254 3.2 16.1 0.00 0.00 0.00 32 1014.8
20260504211015 24 249 4.8 12.9 0.00 0.00 0.00 32 1015.0
20260504210015 24 248 3.2 11.3 0.00 0.00 0.00 31 1015.1
20260504205015 24 267 3.2 9.7 0.00 0.00 0.00 33 1015.1
20260504204015 24 239 4.8 11.3 0.00 0.00 0.00 32 1015.2
20260504203015 25 266 3.2 8.0 0.00 0.00 0.00 31 1015.3
20260504202015 24 251 3.2 4.8 0.00 0.00 0.00 31 1015.4
20260504201015 24 232 4.8 9.7 0.00 0.00 0.00 29 1015.4
20260504200015 24 199 3.2 8.0 0.00 0.00 0.00 29 1015.6
20260504195015 24 208 3.2 8.0 0.00 0.00 0.00 31 1015.8
20260504194015 24 234 3.2 6.4 0.00 0.00 0.00 29 1015.8
20260504193015 23 150 3.2 8.0 0.00 0.00 0.00 32 1016.0
20260504192015 23 182 4.8 6.4 0.00 0.00 0.00 31 1016.1
20260504191015 23 183 3.2 8.0 0.00 0.00 0.00 34 1016.3
20260504190015 23 184 3.2 8.0 0.00 0.00 0.00 35 1016.4
20260504185015 22 181 3.2 11.3 0.00 0.00 0.00 36 1016.4
20260504184015 22 181 4.8 8.0 0.00 0.00 0.00 34 1016.5
20260504183015 22 161 3.2 9.7 0.00 0.00 0.00 34 1016.9
20260504182035 22 202 1.6 6.4 0.00 0.00 0.00 38 1016.9
20260504181015 22 221 3.2 6.4 0.00 0.00 0.00 36 1017.1
20260504180015 21 187 1.6 6.4 0.00 0.00 0.00 39 1017.3
20260504175015 21 203 3.2 6.4 0.00 0.00 0.00 37 1017.5
20260504174015 21 166 3.2 8.0 0.00 0.00 0.00 37 1017.5
20260504173015 21 165 3.2 8.0 0.00 0.00 0.00 35 1017.5
20260504172015 21 227 3.2 6.4 0.00 0.00 0.00 35 1017.6
20260504171015 20 198 3.2 8.0 0.00 0.00 0.00 36 1017.7
20260504151015 15 240 0.0 4.8 0.00 0.00 0.00 48 1019.4
20260504141014 11 168 1.6 6.4 0.00 0.00 0.00 68 1019.3
20260504081016 1 0.0 0.0 0.00 0.00 0.00 87 1018.5